Location: Espelette
(43.3402°N, 1.4474°W)
Time: 07:23:37
(UTC+00:00)

CZ-4C R/B - Pass Details

Date: 19 May 2025
Orbit: 425 x 537 km, 98.0° (Epoch: 18 June)

Event Time Altitude Azimuth Distance (km) Brightness Sun altitude
Rises 22:49:07 0° 8° (N) 2,594 7.8 -24.5°
Reaches altitude 10° 22:51:16 10° 4° (N) 1,686 6.7 -24.6°
Enters shadow 22:54:12 47° 326° (NW) 643 4.0 -24.8°
